Location: *
(23.5860°S, 65.4036°W)
Time: 01:45:41
(UTC+00:00)

Cosmos 1428 Rocket - Pass Details

Date: 25 August 2019
Orbit: 947 x 989 km, 82.9° (Epoch: 22 October)

Event Time Altitude Azimuth Distance (km) Brightness Sun altitude
Rises 22:37:36 0° 1° (N) 3,635 7.6 -7.4°
Reaches altitude 10° 22:40:06 10° 3° (N) 2,690 6.9 -7.9°
Maximum altitude 22:46:14 74° 87° (E) 998 4.4 -9.3°
Drops below altitude 10° 22:52:22 10° 171° (S) 2,694 6.7 -10.7°
Sets 22:54:52 0° 172° (S) 3,642 7.3 -11.3°
